Location: Gisborne
(38.6530°S, 178.0040°E)
Time: 00:23:57
(UTC+12:00)

H-2A R/B - Pass Details

Date: 24 January 2019
Orbit: 733 x 838 km, 98.3° (Epoch: 21 April)

Event Time Altitude Azimuth Distance (km) Brightness Sun altitude
Rises 22:35:39 0° 169° (SSE) 3,257 5.8 -20.5°
Reaches altitude 10° 22:37:59 10° 169° (S) 2,311 5.0 -20.8°
Maximum altitude 22:43:04 83° 255° (WSW) 762 1.9 -21.4°
Enters shadow 22:45:35 30° 341° (NNW) 1,319 2.9 -21.7°
